TIANMU-1 09

Last updated on Sun Dec 14 2025 00:02:24 GMT+0000 (Coordinated Universal Time)

1 57401U 23101C 25347.26934174 .00012289 00000+0 45061-3 0 9991 2 57401 97.2827 36.4185 0006794 82.6141 277.5871 15.28099686133232
UTC large
Height (km)
Speed (km/s)
/
Latitude / Longitude
Inclination (degrees)
Orbital Period (minutes)
Azimuth
Elevation
Range (km)
Doppler Factor

Next 0 passes for location: London (51.5072 / 0.1276)

Sorry there are no passes over London.